Showing default

LEMUR 2 BALTO, 63395

Orbit data source: Space-Track

LEMUR 2 BALTO, 63395 is a payload satellite owned by Spire (US) in SSO that was launched on Sat, 15 Mar 2025 UTC via an FALCON 9 launch vehicle from the Air Force Western Test Range (AFWTR). Payload-class satellites include a variety of spacecraft equipped with specific instruments for various scientific and technological missions. These include communications satellites like Starlink; space stations such as the ISS; scientific satellites like the Hubble; Earth observation satellites from companies like Planet Labs, Umbra, and HawkEye 360; GPS; miniature CubeSats for education and research; and military/defense satellites.

Loading next visibility...
Identifier
63395, 2025-052BH
Orbit
SSO
Country
Flag of USUS
Related business
Manufacturer
SPIREG/WINGB
Mission
Operational Commercial Com/MetRO
Bus & Motor
CUBESAT 6U, Unknown motor
Mass
10 kg wet, 10 kg dry
Launch date (UTC)
Icon of a cake. It is the launch day of the satellite!2025-03-15 (1 year ago)
Launch vehicle
FALCON 9
Launch site
Air Force Western Test Range (AFWTR)
Object type
Payload
Rocket body
Debris
Shape & HBR
Box, 0.2 m
Radar Cross Section
0.080 m², Small (<0.1 m²)

Expand to show TLE details & history
Last TLE update: 8 hours ago

TLE from 8 hours ago
0 LEMUR 2 BALTO
1 63395U 25052BH  26074.63599615  .00006313  00000-0  52534-3 0  9998
2 63395  97.6982 329.3829 0001528 355.0560   5.0647 14.99025599 54740
Epoch: 2026-03-15T15:15Z
TLE epoch observation values (Epoch: 2026-03-15T15:15:50.067Z)
Latitude
-0.00007°
Longitude
-72.81569°
Altitude
571.901 km
Speed
7.576 km/s
True Right ascension
21h 57m 31s
True Declination
0° 00' 00"
Sunlit
Object was in daylight at epoch
Visualization orbit readout
Latitude
Unknown
Longitude
Unknown
Altitude
Unknown
Speed
Unknown
Apparent Right ascension
Unknown
Apparent Declination
Unknown
Sunlit
N/A
Visualization observer readout
Local Sidereal Time
04:03:26
Azimuth
Unknown
Elevation
Unknown
Doppler factor
Unknown
Orbital elements
Apogee altitude
567.973 km
Perigee altitude
565.851 km
Semi-major axis
6,945.049 km
Eccentricity
0.00015
Inclination
97.6982°
RAAN
329.3829°
Arg. of periapsis
355.056°
True anomaly
5.06625°
Mean anomaly
5.0647°
Eccentric anomaly
5.06547°
Mean motion
3.74999 °/min
Orbital period
96 mins
BSTAR
0.00052534
Loading maneuver chart data...
Computing Atmospheric mass density...
Loading historical data...
Loading historical data...
Loading historical data...
Loading historical data...
Loading historical data...
Loading historical data...
Loading historical data...

Documentation

Showing up to 5 results
|